User: anonymous   Login
Location: Kunchanapalle
(16.4623°N, 80.6176°E)
Time: 02:29:15
(UTC+00:00)
Language:

H-2A R/B - Orbit

View from above orbital plane
View from above orbital plane
View from above satellite
View from above satellite

Ground track
Ground track

The orbit data is extracted from the following two-line orbital elements,

1 38341U 12025E   20302.47439520  .00000271  00000-0  39176-4 0  9990
2 38341  98.5151 106.2398 0055836 163.5193 196.7851 14.84093765457172
Epoch (UTC): 28 October 2020 11:23:07
Eccentricity: 0.0055836
inclination: 98.5151°
perigee height: 577 km
apogee height: 655 km
right ascension of ascending node: 106.2398°
argument of perigee: 163.5193°
revolutions per day: 14.84093765
mean anomaly at epoch: 196.7851°
orbit number at epoch: 45717

The dashed part of the orbit path shows where the satellite is in the earth's shadow,  

DLR